Location: Peterborough
(44.3091°N, 78.3197°W)
Time: 00:04:36
(UTC-04:00)

SR - Pass Details

Date: 28 March 2023
Orbit: 581 x 867 km, 66.7° (Epoch: 02 June)

Event Time Altitude Azimuth Distance (km) Brightness Sun altitude
Rises 01:29:32 0° 168° (SSE) 3,019 - -42.7°
Reaches altitude 10° 01:32:36 10° 149° (SSE) 2,054 - -42.7°
Maximum altitude 01:35:32 17° 109° (ESE) 1,603 - -42.6°
Drops below altitude 10° 01:38:22 10° 69° (ENE) 1,974 - -42.6°
Exits shadow 01:41:02 - 50° (NE) 2,785 ? -42.5°
Sets 01:41:13 0° 49° (NE) 2,848 ? -42.5°
